Lapse_Rate
9.1 9.1 8.8 8.3 7.3 7.0 6.8 6.6 7.3 7.6 7.5 7.3 7.0 6.9 6.7 6.7 6.9 6.5 5.2 5.4 6.7 6.7 6.9 7.5 7.2 7.0 6.8 6.1 6.5 5.8 5.8 5.3 5.5 6.5 6.5 6.5 6.5 6.5 6.5 6.5 6.5 6.5 6.5 6.5 6.5 6.5 6.5 6.1 6.3 6.5 6.4 6.1 5.7 4.7
8.8 9.0 9.2 8.6 8.2 7.7 7.2 6.7 6.5 7.1 7.3 7.2 7.1 7.0 6.8 6.6 6.6 7.2 6.6 6.4 7.1 6.7 6.2 6.9 7.2 7.6 7.6 7.0 6.6 5.6 6.5 6.0 5.7 6.5 6.5 6.5 6.5 6.5 6.5 6.5 6.5 6.5 6.5 6.5 6.5 6.5 6.2 4.7 5.0 3.7 4.9 5.1 4.6 5.2
9.4 9.2 9.2 9.1 8.7 8.3 7.7 7.5 7.4 7.1 7.1 7.3 7.2 7.0 6.9 6.7 6.6 7.1 6.5 6.7 6.5 6.4 6.3 6.4 6.5 7.4 6.9 7.6 8.1 6.6 6.6 6.8 6.4 5.1 6.3 6.5 6.5 6.5 6.5 6.5 6.5 6.5 6.2 6.5 6.5 6.5 6.5 6.2 6.1 6.0 6.2 6.0 5.7 5.5
9.7 9.6 9.5 9.4 9.2 8.4 7.9 7.7 7.4 7.3 7.2 7.2 7.3 7.0 6.6 6.5 6.7 7.1 6.7 6.6 6.5 5.9 6.4 6.1 4.6 5.4 5.9 7.5 6.8 7.2 6.4 7.5 7.6 7.0 6.4 6.5 6.5 6.3 6.5 6.5 6.5 6.5 6.5 6.5 6.5 6.5 6.4 6.2 6.3 6.4 6.3 6.2 5.9 5.4
9.7 9.7 9.7 9.7 9.5 9.0 8.6 8.2 7.7 7.7 7.7 7.4 7.4 7.0 6.7 6.7 6.7 7.0 6.7 6.5 6.5 6.6 6.4 6.1 6.2 5.5 5.1 4.7 5.9 6.9 7.4 7.3 6.6 6.5 6.5 6.5 6.5 6.5 6.5 6.5 6.5 6.5 6.5 6.5 6.5 6.1 5.7 6.0 4.8 4.2 4.8 5.5 5.8 4.8
9.7 9.7 9.3 9.6 9.5 9.4 9.0 8.5 8.2 8.2 7.7 7.3 7.0 6.8 6.7 6.6 7.0 6.3 6.6 5.8 6.0 6.3 6.0 6.5 5.8 4.5 4.5 4.9 5.3 5.7 7.1 7.1 6.6 6.0 6.4 6.4 6.9 6.3 6.5 6.5 6.5 6.3 6.1 6.2 6.5 6.6 6.1 6.1 6.4 5.9 5.5 5.2 4.8 4.6
9.7 9.7 9.5 9.6 9.7 9.5 9.0 8.8 8.6 8.3 7.7 7.2 6.9 6.8 6.6 6.6 6.6 6.8 5.7 5.9 5.8 6.1 4.8 6.5 6.5 5.5 6.1 6.1 5.6 6.2 6.5 6.3 6.1 5.8 6.4 6.4 6.7 6.5 6.5 6.5 6.5 5.9 6.6 5.4 5.8 6.1 6.0 6.1 6.0 5.0 5.0 5.2 4.6 5.2
9.7 9.7 9.6 9.5 9.6 9.6 9.2 9.0 8.6 8.2 7.7 7.4 7.0 6.7 6.4 6.5 6.3 6.4 6.1 6.3 6.0 5.8 6.4 6.5 6.5 5.4 6.2 5.6 6.1 5.1 4.9 5.1 5.3 6.2 5.9 6.5 5.7 6.4 6.5 6.5 6.4 6.5 6.0 6.0 5.9 5.8 5.6 5.8 5.8 5.8 5.7 5.9 5.7 5.2
9.6 9.7 9.7 9.6 9.6 9.7 9.3 9.1 8.7 7.9 7.6 7.6 7.1 6.4 5.8 5.8 5.8 6.0 5.9 5.9 5.9 5.8 6.4 6.4 6.5 6.5 6.3 5.7 5.7 5.7 5.9 6.5 5.4 6.5 6.5 6.3 6.5 6.5 6.5 6.3 5.8 5.6 5.5 6.0 6.3 6.4 6.3 5.4 5.4 6.1 6.2 5.8 5.2 5.0
9.6 9.7 9.6 9.7 9.6 9.6 9.2 9.0 8.6 7.5 7.4 7.4 6.0 5.2 5.1 5.0 5.3 5.5 6.1 5.9 6.0 5.7 6.3 6.5 4.9 6.5 6.1 6.3 6.5 6.5 6.0 6.5 6.5 6.3 5.4 6.5 6.5 5.9 5.5 5.8 5.9 5.8 5.6 5.9 5.8 6.3 6.6 6.6 6.6 6.2 6.3 6.3 5.7 5.6
9.7 9.7 9.7 9.7 9.7 9.6 9.1 9.0 8.2 7.1 7.1 5.8 5.1 5.3 4.5 5.2 5.3 5.6 6.2 6.4 6.3 6.5 6.4 5.9 4.7 6.5 5.3 6.5 6.5 5.1 6.5 6.5 6.5 6.5 6.5 6.5 6.5 6.4 5.4 5.2 5.2 5.0 4.5 4.7 5.5 6.2 6.7 6.8 6.6 5.8 5.1 4.4 4.6 4.1
9.7 9.7 9.7 9.7 9.7 9.4 9.3 9.1 7.8 6.9 6.6 6.3 6.2 5.2 4.5 4.6 5.4 6.5 6.5 6.5 6.5 6.5 5.7 6.5 4.3 2.9 2.8 3.6 5.7 5.6 6.5 6.5 6.5 6.5 6.5 6.5 6.5 6.0 5.9 6.1 6.0 6.2 5.7 6.2 6.5 7.0 5.9 5.7 4.8 4.9 3.5 3.1 3.0 2.8
9.6 9.7 9.7 9.6 9.7 9.4 9.4 9.0 7.9 7.6 7.3 6.6 5.9 5.9 6.1 6.2 6.5 6.5 6.5 6.5 6.5 6.3 5.6 3.7 6.3 4.7 4.6 3.0 6.1 6.5 6.5 6.5 6.3 6.5 6.5 6.5 6.3 6.5 6.1 6.5 7.0 7.4 6.5 5.4 6.2 5.5 5.2 5.4 4.2 4.4 3.9 4.0 3.7 3.4
9.4 9.4 9.5 9.7 9.7 9.6 9.5 9.3 8.3 7.6 6.9 6.2 6.5 6.5 6.5 6.5 6.5 6.5 6.5 6.5 4.1 3.3 5.7 4.1 4.5 6.1 5.2 6.5 6.5 6.5 6.5 6.5 6.5 6.5 6.5 6.5 6.8 7.2 7.1 7.4 7.4 7.1 6.5 6.2 6.2 5.9 5.5 4.8 4.6 4.2 4.2 4.3 4.2 4.8
9.6 9.6 9.6 9.6 9.6 9.6 9.6 8.9 8.2 7.5 6.7 6.4 6.6 6.5 6.5 6.0 5.7 5.1 4.9 5.1 4.9 5.0 5.0 5.4 5.6 4.2 6.5 6.5 6.5 6.5 6.5 6.5 6.5 6.5 6.5 6.7 7.0 7.3 7.3 7.4 7.1 6.8 6.3 6.0 5.6 5.6 5.7 5.4 5.3 5.6 5.5 5.3 5.2 5.0
9.5 9.6 8.9 9.6 9.6 9.5 9.3 7.0 7.4 6.9 5.9 6.4 6.9 6.5 6.2 6.5 6.5 5.3 4.3 5.2 5.2 4.5 4.3 4.4 6.5 6.5 6.5 6.5 6.5 6.5 6.5 6.5 6.5 6.5 6.7 6.9 7.3 7.1 7.2 6.8 6.5 6.2 6.2 6.1 6.1 6.2 6.2 6.1 6.2 5.8 5.2 4.9 4.7 4.4
9.7 7.3 9.2 9.1 8.0 6.4 5.2 6.4 6.9 6.2 6.0 6.8 6.5 5.1 5.5 5.0 5.8 4.6 4.3 3.9 4.0 4.6 6.5 6.5 6.5 6.5 6.5 6.5 6.5 6.5 6.5 6.5 6.5 6.6 6.4 7.0 7.0 6.8 6.5 6.3 6.0 5.9 5.9 6.0 6.1 6.0 5.7 5.0 4.9 4.6 4.6 4.6 4.3 4.2
6.3 5.8 8.4 7.9 7.0 5.9 6.8 7.0 6.1 6.3 6.7 6.2 6.5 3.9 4.9 4.5 4.0 3.4 2.9 4.0 5.2 5.1 5.9 6.4 5.6 6.5 6.5 6.5 6.5 6.5 6.6 6.3 6.0 6.6 6.6 6.8 6.1 6.1 6.5 6.5 6.2 6.0 6.1 6.0 5.9 5.8 5.6 5.5 5.4 5.6 4.9 4.6 3.9 3.8
6.1 6.7 8.3 8.2 6.8 6.5 6.7 6.7 6.4 6.5 6.0 5.9 4.8 3.5 5.3 4.6 2.8 3.7 3.8 4.7 5.4 5.3 4.3 5.2 6.5 6.5 6.5 6.5 6.3 5.2 5.1 5.8 6.6 6.5 6.3 5.7 6.2 6.2 6.3 6.2 5.9 5.7 5.7 5.7 5.5 6.0 6.0 5.8 5.6 5.1 4.9 4.1 4.2 4.5
8.9 8.9 9.2 8.1 7.0 6.7 6.8 6.2 6.1 6.2 6.5 4.4 2.9 4.2 4.6 5.5 4.9 4.0 3.8 4.5 5.9 4.4 5.8 6.5 6.5 6.4 5.9 5.4 5.0 3.8 4.7 6.1 6.4 6.6 6.5 5.9 5.7 6.2 6.4 6.3 5.8 5.4 5.1 5.3 5.8 5.6 5.4 5.1 5.0 4.7 4.5 4.6 4.2 4.8
8.1 7.6 8.9 8.6 7.0 6.7 6.5 4.8 5.0 5.2 4.9 4.3 3.5 4.7 4.1 5.2 4.9 4.1 4.9 4.9 4.7 6.2 6.5 4.6 5.1 5.4 5.8 4.8 4.1 5.1 5.5 5.7 5.2 5.1 6.1 6.1 5.8 5.8 5.6 5.3 4.9 4.9 4.7 5.1 5.0 5.1 4.5 4.8 5.0 4.4 3.5 3.3 3.1 2.6
6.7 6.4 6.3 7.3 6.9 6.5 6.3 4.3 4.7 4.1 4.2 3.7 4.8 5.0 5.0 6.5 5.6 4.9 5.2 5.1 5.0 6.3 4.1 4.1 4.8 5.2 6.1 5.6 4.9 5.6 5.4 5.3 5.6 5.9 5.6 5.9 5.9 5.9 5.6 5.2 4.9 5.1 5.2 5.3 5.2 5.2 5.1 5.0 4.5 3.7 2.3 1.8 1.0 0.3
6.8 6.0 6.0 6.3 6.6 5.5 5.6 4.5 5.6 5.2 6.5 6.3 6.0 6.5 6.5 6.4 4.9 4.5 6.0 5.6 6.0 5.0 4.9 5.3 5.6 5.3 5.1 5.0 5.1 5.2 5.4 5.5 5.6 5.5 5.3 5.1 5.3 5.4 5.1 4.9 4.7 4.5 4.9 5.2 4.9 4.3 3.8 2.8 2.2 1.7 1.6 1.0 -0.3 -1.4
6.5 6.0 6.4 6.7 6.0 6.5 5.7 4.9 4.8 5.6 5.9 6.5 6.5 6.5 6.5 6.5 5.7 6.2 6.5 6.5 6.3 5.6 5.8 5.9 5.5 5.4 5.5 5.9 5.9 5.3 5.0 4.7 4.8 5.2 5.2 4.8 5.2 5.1 4.8 5.1 5.2 5.1 5.2 5.4 4.8 4.4 4.2 3.2 2.5 1.7 0.5 -1.1 -2.2 -3.1
6.6 6.2 5.9 6.5 3.5 6.0 6.5 6.5 6.5 6.5 6.5 6.5 6.5 6.5 6.5 6.0 6.5 6.5 6.5 6.5 6.3 6.1 5.7 5.7 5.8 6.0 6.2 5.6 5.2 5.2 5.3 4.4 4.3 4.6 5.0 3.9 4.5 4.8 4.9 5.1 5.3 5.7 5.1 2.5 1.4 0.4 -0.4 -0.2 0.2 -0.3 -0.8 -2.2 -3.0 -3.7
6.5 5.1 5.9 6.5 6.1 6.5 6.5 6.5 6.5 6.5 6.5 6.5 6.5 5.7 4.5 6.5 6.5 6.5 6.5 6.6 6.3 6.2 5.9 5.5 5.9 6.0 5.9 5.4 5.2 5.1 4.6 4.1 3.7 4.1 4.8 4.9 4.9 4.6 4.8 5.0 5.5 5.5 4.3 1.4 -0.2 -1.1 -1.4 -1.5 -1.5 -1.7 -2.3 -2.9 -4.6 -4.6
6.5 6.5 5.5 4.9 5.0 5.2 6.0 5.4 5.7 6.5 6.5 6.5 6.5 6.5 6.5 6.5 6.5 6.5 5.7 5.0 5.8 5.1 4.8 4.7 5.4 5.2 4.9 3.7 2.1 1.6 1.4 1.8 1.7 1.4 1.8 1.5 1.5 2.2 2.8 2.2 2.0 2.8 2.8 0.6 -1.1 -1.5 -2.8 -3.5 -3.6 -3.5 -3.9 -5.0 -6.6 -6.1
4.3 5.1 6.5 4.5 5.1 4.7 6.5 6.5 6.5 6.5 6.5 5.8 6.2 6.5 6.5 6.5 6.5 5.9 5.4 5.4 6.0 4.5 4.1 4.2 3.7 3.2 2.4 1.4 0.7 0.3 0.5 0.2 0.2 0.9 1.1 0.6 -0.1 -0.8 -1.2 -1.4 -0.9 -0.5 -0.7 -1.1 -2.1 -2.9 -3.0 -3.3 -4.2 -4.0 -3.7 -4.1 -5.9 -7.5
4.3 4.9 4.2 6.5 5.8 6.1 6.4 6.5 6.5 5.9 5.3 4.3 6.5 6.5 6.5 6.2 5.7 5.6 4.7 4.7 4.6 4.3 3.7 3.2 2.6 2.1 1.5 1.0 0.8 1.0 0.6 1.4 1.4 0.5 -0.2 0.8 -2.1 -0.9 -3.0 -3.7 -2.4 -1.2 -1.3 -1.4 -0.6 -2.6 -3.4 -3.4 -3.7 -3.7 -3.7 -4.0 -5.9 -5.5
4.7 4.5 5.9 6.3 6.5 6.5 6.2 5.9 5.7 1.9 3.2 3.9 6.0 6.8 5.9 5.1 3.6 3.1 4.5 4.4 4.4 3.7 3.1 2.8 2.6 2.8 3.1 3.6 4.1 3.5 1.0 -2.2 -2.9 -1.0 -1.0 -2.0 -3.1 -3.7 -5.6 -3.4 -3.5 -4.3 -1.0 -0.7 -1.1 -1.0 -0.4 -2.2 -2.1 -3.4 -3.7 -3.9 -4.5 -5.1
4.2 3.6 5.0 5.3 6.5 6.3 5.6 3.9 3.7 2.6 2.4 3.3 1.6 3.2 4.4 4.9 4.1 3.0 2.2 3.3 3.9 4.1 4.3 4.6 4.5 4.0 3.3 3.9 3.6 2.6 1.7 -1.4 -2.1 -0.7 -0.9 -1.7 -2.3 -3.0 -3.2 -3.9 -5.3 -4.6 -2.9 -2.5 -2.6 -3.3 -3.8 -4.4 -3.9 -4.2 -4.3 -5.0 -5.9 -6.1
1.7 1.7 6.3 6.5 6.5 4.9 2.5 3.3 3.4 5.2 2.8 1.5 3.2 0.1 1.4 1.6 3.5 3.0 2.7 2.6 5.7 6.1 5.8 5.6 5.1 3.7 3.2 2.0 0.3 -1.8 -1.5 -1.8 -1.5 -1.5 -1.5 -1.5 -1.8 -2.3 -2.5 -2.6 -2.9 -3.0 -3.4 -3.9 -3.9 -4.0 -4.1 -4.0 -4.4 -4.5 -5.4 -5.7 -6.0 -6.6
1.6 0.3 1.6 1.7 4.3 4.5 2.2 2.1 3.0 5.6 3.6 6.2 5.6 1.2 -0.4 0.5 4.3 2.3 2.5 1.3 3.8 3.4 1.8 0.7 0.3 0.1 0.2 0.0 -1.7 -2.6 -2.9 -2.5 -2.1 -1.1 -1.8 -2.4 -3.0 -2.5 -2.9 -2.7 -2.7 -3.1 -3.6 -3.9 -3.9 -3.8 -3.8 -4.6 -4.8 -5.5 -5.8 -6.0 -6.7 -8.4
Wind_Speed
4 4 5 6 10 11 6 8 8 13 14 13 13 13 14 15 16 7 5 12 8 8 13 11 16 19 13 8 9 3 4 3 2 4 4 4 5 7 6 8 6 7 5 5 3 8 13 12 5 11 18 17 12 7
4 4 4 6 7 8 9 5 7 9 12 13 13 14 15 17 19 17 6 12 15 10 4 12 24 24 24 24 10 6 8 5 4 2 3 2 2 2 5 7 8 7 13 7 9 7 8 6 9 9 3 6 7 7
4 5 5 5 6 6 7 8 6 5 9 13 14 14 16 19 22 19 8 7 4 8 10 7 15 18 14 22 16 11 9 10 8 4 4 5 7 3 7 8 12 8 7 8 11 21 26 18 18 18 19 19 18 16
6 6 8 9 8 10 9 10 11 8 7 11 15 15 17 20 23 23 8 8 7 3 4 7 7 20 24 17 18 21 26 13 8 5 6 4 6 6 8 10 5 7 5 11 16 23 18 20 21 21 21 19 19 17
7 9 9 9 8 10 11 10 13 13 11 13 15 16 18 21 23 21 7 9 12 9 2 2 4 7 9 19 26 22 20 18 10 6 5 6 5 4 5 8 14 19 24 9 13 13 6 16 12 12 15 17 17 14
9 12 10 9 10 9 11 13 15 16 15 16 17 18 20 22 21 6 4 8 13 9 3 3 3 5 6 12 14 18 15 10 7 3 4 4 5 4 5 11 23 9 12 12 17 19 14 19 24 22 16 17 12 12
10 9 10 12 12 10 12 14 16 19 18 18 18 19 22 22 8 6 4 2 9 10 3 2 3 3 3 2 2 3 9 4 4 3 4 2 3 3 3 6 25 6 10 7 10 15 12 19 14 13 11 15 11 13
11 12 12 11 13 11 13 15 17 19 18 21 18 21 22 22 19 8 4 7 6 3 3 2 3 2 3 1 1 1 2 1 2 1 1 2 1 3 6 15 14 12 9 13 16 16 17 21 19 20 19 17 18 16
13 13 13 11 14 14 14 15 18 21 18 21 18 20 7 5 3 2 7 14 1 2 3 3 4 4 3 2 2 1 1 2 2 3 3 3 2 7 11 8 7 8 7 13 14 13 14 14 17 19 17 16 15 17
16 14 13 14 15 13 14 15 17 21 19 19 3 1 2 2 1 6 3 2 1 2 3 3 2 3 3 2 3 3 1 2 2 4 2 3 4 9 12 13 12 10 7 7 11 14 15 16 13 15 21 19 17 16
18 16 15 15 15 13 13 14 15 21 14 1 1 2 3 9 2 2 4 4 3 3 4 3 4 5 2 3 3 3 3 2 2 4 4 3 3 4 7 7 6 7 6 8 10 14 16 18 18 17 14 8 7 7
17 16 16 15 15 13 13 13 13 7 2 6 4 3 2 2 2 4 5 3 4 5 3 5 4 4 2 3 3 1 3 2 5 4 3 3 2 5 7 9 10 6 8 14 15 18 19 19 13 3 2 5 8 9
16 17 17 15 15 13 13 13 15 16 13 2 2 3 3 3 4 5 7 4 4 4 5 3 3 3 2 2 2 2 2 4 1 3 3 3 4 6 9 11 14 14 14 13 11 12 12 12 13 10 10 9 12 14
16 17 19 16 16 14 15 12 14 10 4 3 3 5 4 3 4 5 3 4 4 4 7 5 2 3 2 2 3 3 4 1 2 2 4 3 8 10 9 11 13 14 13 10 9 10 10 11 13 14 13 12 15 15
19 15 16 15 16 17 16 14 16 3 3 4 3 4 6 4 2 3 3 3 1 6 6 3 3 3 1 2 2 2 1 4 4 4 2 4 7 10 11 11 10 9 7 7 8 8 10 11 14 14 14 14 16 15
19 17 10 15 16 18 17 15 5 3 3 3 5 3 2 2 2 1 1 2 1 4 3 3 3 3 3 3 3 5 3 5 2 1 2 5 7 7 7 8 8 7 7 8 8 10 12 13 14 16 17 17 17 18
17 4 11 10 7 15 25 5 4 6 4 4 4 4 3 1 2 2 2 1 1 3 3 3 4 5 3 2 4 2 3 2 3 2 2 3 5 6 5 6 7 9 10 10 10 12 13 13 15 17 18 16 17 17
4 5 10 1 7 7 6 5 3 5 6 4 3 3 3 2 2 1 2 2 3 3 2 3 3 3 3 3 3 2 2 2 3 3 2 4 5 5 5 8 9 9 10 9 10 11 11 13 14 11 14 13 14 14
6 6 6 4 6 5 4 5 4 4 5 3 2 1 2 0 0 3 3 2 2 2 2 1 3 1 2 1 2 3 4 3 3 2 2 5 6 8 7 8 10 11 10 10 11 10 10 13 10 9 9 10 11 9
17 17 10 10 7 2 5 4 3 3 4 3 2 3 3 1 2 2 2 2 3 2 3 2 1 1 2 1 0 3 5 6 5 5 4 5 3 6 7 7 7 8 8 10 10 12 9 9 9 9 9 10 11 10
4 5 11 9 4 5 4 3 3 3 3 2 2 3 1 2 2 2 2 1 3 1 1 1 2 1 1 1 1 4 5 6 3 3 6 4 5 6 6 7 8 7 8 7 8 8 10 8 7 9 10 10 10 11
2 5 2 6 4 4 4 3 4 3 3 2 3 3 3 2 2 1 3 3 2 1 1 2 2 2 2 3 3 5 6 8 8 7 9 8 7 6 5 5 6 7 7 7 7 8 8 7 8 9 10 9 10 9
4 5 4 4 5 2 3 2 3 3 4 4 2 3 2 2 3 3 2 2 1 0 1 1 3 4 5 4 8 7 7 11 8 7 8 7 7 7 7 6 6 7 8 7 7 7 8 8 9 9 8 9 8 8
6 3 5 6 5 3 2 1 2 3 3 3 3 3 3 3 2 2 2 2 1 1 1 4 5 4 4 6 7 7 6 8 8 7 7 8 7 7 7 7 6 6 6 6 6 7 7 7 8 8 8 9 8 8
4 4 4 2 2 3 3 2 2 3 3 1 3 1 2 3 2 2 2 2 2 2 3 4 4 3 6 7 6 6 5 8 8 8 5 8 8 8 7 7 6 6 5 7 6 7 5 6 6 7 8 9 10 10
4 5 5 6 2 4 3 3 3 4 4 3 1 2 2 3 3 2 2 4 2 3 4 6 8 7 6 6 8 7 5 5 9 8 5 5 6 7 7 8 6 4 5 6 7 8 8 7 8 11 10 10 8 9
3 4 3 3 3 4 3 3 3 4 3 4 2 2 3 4 2 1 1 2 2 2 2 3 5 7 8 7 7 6 6 7 8 7 6 7 7 6 5 5 5 3 6 8 6 8 10 9 9 8 8 5 4 4
4 3 6 2 5 3 5 3 3 3 3 2 3 3 4 6 3 1 1 2 7 7 8 7 6 7 7 7 7 8 8 9 10 10 10 9 8 7 7 6 6 11 7 7 8 7 8 8 8 8 9 8 5 3
2 1 5 6 5 5 4 2 1 1 1 2 4 3 2 2 2 1 3 6 8 9 9 8 7 8 8 6 5 6 7 7 11 11 11 6 2 2 3 3 5 6 7 9 13 10 10 8 8 8 8 8 5 5
2 2 4 4 4 3 2 3 1 2 3 3 4 3 3 2 4 4 4 5 7 7 6 8 7 8 9 9 8 5 3 3 3 6 9 6 4 4 3 5 6 4 7 9 10 11 14 11 12 7 7 7 5 5
3 3 4 4 2 2 5 4 4 3 3 4 4 4 3 3 2 5 6 3 6 8 9 8 6 6 7 7 7 7 4 3 5 8 9 9 8 7 6 5 4 5 7 8 9 8 8 7 7 8 8 8 7 5
3 3 4 3 3 1 3 3 2 3 3 4 2 3 4 4 3 3 6 4 6 6 7 7 7 4 5 5 5 4 8 6 7 8 12 9 8 7 7 6 6 6 7 8 8 8 9 9 8 7 7 8 7 6
4 4 5 4 2 2 2 4 3 3 3 3 2 2 2 3 2 2 2 6 4 7 7 7 7 7 9 10 8 6 7 7 10 12 12 12 10 10 7 6 6 8 9 8 8 9 10 11 9 8 8 8 7 5
Wind_Direction
338 348 349 345 9 10 6 9 223 201 205 208 215 222 232 237 237 218 244 192 215 248 249 241 234 237 251 244 255 274 360 299 7 195 180 206 226 216 203 206 194 183 180 197 200 233 256 230 225 191 245 266 260 251
332 323 350 352 348 350 2 328 343 239 217 223 225 233 239 245 244 235 252 235 226 236 261 228 235 238 232 235 239 219 241 234 211 235 214 206 280 320 264 247 219 243 206 220 190 215 245 206 225 217 213 234 264 239
318 337 334 328 334 321 334 347 301 332 250 233 237 243 248 251 250 242 247 243 235 249 254 232 234 223 227 229 225 240 239 227 238 198 238 241 246 144 249 246 252 259 233 227 251 254 255 260 276 275 276 262 264 264
270 289 304 310 313 319 320 334 327 293 315 268 247 249 251 256 257 254 245 239 231 247 257 251 217 234 230 218 220 222 238 249 253 239 240 242 255 203 250 257 237 226 158 233 249 257 272 271 270 269 269 266 265 265
275 281 283 283 288 303 300 312 320 310 289 293 263 261 263 265 266 264 247 237 231 223 271 266 285 226 206 216 228 233 236 239 241 234 220 232 225 217 246 260 251 253 252 232 251 248 217 261 250 251 257 265 267 257
267 268 274 281 286 288 305 298 302 305 296 287 282 272 272 273 270 274 251 211 210 210 227 237 241 238 193 204 213 226 229 236 227 189 212 223 207 218 249 253 257 250 243 231 249 257 251 263 265 262 257 259 256 252
256 260 264 283 283 280 293 293 295 300 294 290 284 274 275 270 255 243 220 292 211 189 142 246 252 248 191 134 162 196 209 225 205 187 210 202 220 203 259 259 268 239 277 241 246 270 274 259 259 272 271 269 254 263
249 254 258 279 284 278 288 292 297 303 296 297 285 283 275 272 282 246 223 262 174 98 176 223 249 356 173 135 103 54 87 117 194 201 214 220 272 213 252 252 269 281 275 264 260 256 251 269 276 270 272 276 272 262
247 256 258 275 283 280 287 291 297 306 300 301 294 291 278 198 192 203 167 186 166 160 196 200 172 215 144 100 106 66 156 206 179 225 213 177 216 228 238 265 261 259 251 282 288 278 269 256 263 274 274 271 258 259
247 253 252 262 274 275 282 291 299 310 305 302 290 284 257 221 134 163 81 158 145 231 212 236 141 155 157 140 168 144 159 222 235 226 152 222 252 269 276 270 280 296 304 310 319 313 310 294 285 286 280 268 258 251
244 250 249 263 268 277 283 291 304 310 298 121 227 241 307 307 176 194 174 171 170 226 206 202 173 142 225 152 166 191 167 211 234 245 181 223 244 262 330 339 330 337 357 332 308 295 288 281 277 278 277 265 268 236
244 244 247 254 263 273 278 289 296 303 289 313 280 261 270 242 197 188 178 163 201 215 185 159 184 152 204 150 115 181 192 128 247 148 224 250 226 325 342 332 335 337 345 334 324 316 318 297 272 212 57 49 51 58
249 239 251 252 257 265 275 281 288 297 309 258 213 238 192 191 208 200 176 195 189 179 177 158 131 137 89 61 99 121 146 232 75 219 229 224 331 349 337 333 333 333 333 328 331 337 2 4 38 44 57 60 71 67
230 241 246 247 253 255 265 273 287 305 267 216 220 230 208 196 233 206 191 174 216 133 139 121 106 132 137 130 148 165 229 99 291 239 246 338 338 328 336 343 341 338 338 337 354 6 18 42 49 51 59 68 75 73
240 238 247 248 251 255 267 275 274 255 262 224 231 238 217 233 236 238 208 106 71 137 131 97 68 97 133 125 212 182 181 234 211 230 268 337 332 339 344 347 349 351 350 15 27 36 46 56 64 65 63 68 72 74
237 233 240 248 256 267 266 270 246 234 230 217 228 253 259 200 202 349 89 115 91 125 91 73 126 148 190 167 171 209 201 217 218 137 335 335 346 351 359 7 8 6 27 38 42 56 68 70 67 67 63 61 62 65
220 203 224 239 267 293 280 206 195 226 199 219 230 223 217 214 188 203 122 146 102 89 140 147 163 185 132 202 209 171 188 128 122 99 28 348 359 35 25 38 43 48 48 49 59 62 66 69 71 68 66 60 64 65
186 206 190 277 280 288 167 181 252 199 208 216 218 236 167 161 149 135 119 115 103 131 144 206 149 183 191 197 153 145 110 101 79 83 67 66 69 71 68 80 73 65 61 55 59 62 64 66 68 68 72 73 73 68
171 171 199 244 248 293 178 191 236 203 210 177 217 234 121 157 255 104 114 133 147 117 106 55 89 111 148 51 131 139 137 132 129 110 83 80 82 93 79 74 75 71 66 63 66 66 65 62 67 69 71 74 75 68
198 210 223 242 249 249 228 194 202 184 173 199 107 125 120 133 122 94 103 71 71 53 42 70 143 119 123 180 117 139 134 128 137 128 102 95 54 65 66 80 77 77 74 67 65 65 68 65 61 67 73 77 81 75
132 230 246 234 219 212 275 186 155 163 141 146 155 115 108 96 110 103 73 33 71 72 125 186 124 131 316 69 125 121 128 141 149 139 139 118 89 86 78 68 72 74 78 78 80 75 72 74 77 82 81 74 69 71
208 255 221 174 226 237 238 236 142 157 97 155 102 108 107 93 117 137 142 63 61 124 156 166 152 133 132 149 106 108 111 109 104 102 97 99 101 94 85 82 86 82 75 77 83 87 83 80 85 81 80 75 67 64
292 211 219 152 251 204 230 120 103 136 123 149 90 106 135 142 168 125 78 120 130 213 160 109 101 93 101 86 105 99 111 111 105 101 99 97 94 94 92 86 87 97 96 86 90 92 90 86 79 84 81 80 82 75
278 249 159 187 206 225 188 120 105 104 97 162 138 126 130 130 128 83 95 96 101 79 78 115 124 111 94 98 107 106 104 106 101 95 103 106 96 85 84 83 82 82 87 90 86 84 80 81 82 83 84 86 77 77
236 207 146 218 272 99 86 71 78 78 116 123 100 107 141 111 101 84 129 137 133 121 116 117 109 108 116 106 101 95 86 116 115 105 94 107 110 102 90 81 74 72 88 92 83 87 74 76 82 88 85 84 87 81
184 212 149 185 211 117 163 111 141 153 107 72 74 111 84 90 77 115 131 152 125 139 131 131 128 118 103 106 114 105 103 119 113 104 88 95 112 123 123 118 110 81 84 108 114 104 92 86 92 94 94 93 92 101
145 236 215 222 147 115 69 66 88 91 100 138 179 93 85 83 175 198 79 50 113 111 108 99 116 117 112 102 86 73 72 69 83 93 85 68 57 51 78 108 106 90 112 103 102 117 118 110 101 100 101 82 76 100
183 153 141 235 69 47 111 79 99 149 169 139 82 58 112 159 171 96 116 110 131 107 92 83 92 104 110 111 112 107 95 100 101 100 86 60 51 52 59 65 70 84 88 92 99 96 102 109 110 109 109 113 102 53
66 66 87 54 58 49 50 59 100 56 311 95 109 117 127 53 4 74 92 119 123 117 113 109 97 100 95 89 88 106 128 138 131 114 108 119 68 28 6 53 77 86 95 95 92 97 98 107 108 105 104 107 107 88
22 52 84 57 71 64 30 17 61 333 36 89 111 110 69 48 7 1 79 113 121 122 121 120 125 126 129 132 129 101 55 101 96 136 149 162 171 145 120 106 99 87 110 116 116 112 104 101 101 88 90 90 82 80
87 73 74 63 103 58 111 110 50 51 38 43 33 86 111 129 63 28 26 17 113 119 122 124 119 122 128 135 136 126 104 5 102 108 112 119 130 130 128 114 110 108 110 116 120 120 118 107 110 110 107 105 99 98
54 107 119 93 109 195 43 63 73 68 33 42 22 45 33 53 56 355 357 343 128 124 121 120 118 98 94 89 80 86 105 114 112 118 121 124 125 126 128 125 116 113 110 110 114 122 117 121 122 121 119 116 114 113
45 41 64 88 68 67 326 89 63 68 41 111 64 97 86 119 134 261 8 7 83 111 103 94 88 83 84 89 90 88 84 95 100 103 104 109 115 122 120 119 118 119 118 118 119 124 123 123 123 122 120 119 122 120